Location: D�nning
(49.2479°N, 12.8491°E)
Time: 05:11:30
(UTC+00:00)

USA 234 - Pass Details

Date: 18 September 2020
Orbit: 1102 x 1106 km, 123.0° (Epoch: 16 October)

Event Time Altitude Azimuth Distance (km) Brightness Sun altitude
Rises 20:15:48 0° 56° (NE) 3,927 6.0 -27.9°
Enters shadow 20:16:06 - 56° (NE) 3,815 6.0 -28.0°
Exits shadow 20:19:21 16° 56° (NE) 2,564 5.0 -28.4°
Maximum altitude 20:24:52 86° 329° (NNW) 1,112 3.2 -29.0°
Drops below altitude 10° 20:31:25 10° 241° (WSW) 2,960 5.7 -29.8°
Sets 20:33:54 0° 241° (WSW) 3,917 6.3 -30.1°
